Location: Newark
(42.8481°N, 0.4872°E)
Time: 16:35:59
(UTC+00:00)

A-11 Canister half - Pass Details

Date: 02 November 2020
Orbit: 1525 x 1683 km, 47.3° (Epoch: 22 November)

Event Time Altitude Azimuth Distance (km) Brightness Sun altitude
Rises 12:23:41 0° 221° (SW) 4,842 12.5 31.4°
Reaches altitude 10° 12:26:54 10° 218° (SW) 3,837 12.3 31.2°
Maximum altitude 12:36:20 57° 143° (SE) 1,812 10.3 30.8°
Drops below altitude 10° 12:45:29 10° 68° (ENE) 3,732 10.8 30.3°
Sets 12:48:34 0° 64° (ENE) 4,703 11.2 30.2°
